GFSNE_925_spd_042.txt.gz
Wind_Speed
14 14 11 12 10 10 12 13 15 9 10 20 22 24 20 23 23 26 27 25 27 28 29 30 30 30 30 30 29 26 24 23 23 23 24 24 24 23
11 11 13 13 12 14 17 18 22 19 10 21 22 21 20 24 24 25 28 28 30 30 31 30 32 30 30 30 27 27 25 24 24 24 23 24 23 23
11 12 13 15 17 14 15 18 20 20 16 24 25 25 26 24 25 27 27 29 30 28 27 30 30 29 26 24 25 28 31 28 25 24 23 22 24 22
12 13 15 15 18 18 19 18 20 24 23 23 25 24 22 24 25 27 26 25 28 28 30 30 32 29 28 28 28 29 31 29 26 25 23 21 22 21
13 13 14 16 17 15 15 20 21 20 22 22 24 24 23 25 25 25 27 27 23 26 26 26 24 24 24 28 32 31 28 29 25 21 20 19 22 21
15 16 15 14 11 16 16 16 17 19 21 21 22 23 24 25 25 23 21 24 25 25 27 25 26 25 25 23 25 27 27 25 20 16 16 16 19 19
16 14 13 15 18 16 14 14 14 17 19 20 21 22 21 22 21 21 22 23 26 23 26 24 22 24 23 22 20 23 22 16 12 10 14 16 15 18
16 12 13 15 12 12 7 10 14 19 20 20 22 20 24 22 18 21 22 21 14 21 22 28 23 24 23 20 15 11 13 10 10 11 11 12 13 16
14 12 13 13 15 15 16 19 22 18 20 23 23 19 21 22 25 25 23 23 23 29 26 25 25 25 22 20 17 13 13 11 13 14 15 12 13 12
13 11 13 12 15 14 18 24 18 19 20 22 20 22 24 27 28 27 28 27 29 28 22 18 24 25 27 23 20 21 20 15 13 12 14 13 10 8
12 12 14 12 13 16 19 19 18 19 18 20 24 22 24 25 25 25 22 19 19 23 25 19 21 22 27 22 22 21 18 16 14 12 12 10 10 6
12 11 15 9 10 14 16 16 18 19 22 26 22 22 23 22 18 17 18 18 18 16 12 12 14 9 6 2 14 13 17 15 13 12 12 8 5 9
11 11 11 10 16 21 13 14 15 19 19 21 21 22 19 19 20 21 22 22 23 20 26 15 8 16 12 15 13 15 12 10 11 10 12 8 8 14
13 13 13 16 20 14 12 12 15 15 15 17 21 19 19 20 22 24 23 23 25 26 31 16 11 13 15 12 6 17 10 7 6 8 8 11 5 2
12 12 15 15 16 15 11 14 14 13 13 16 18 19 21 22 22 22 24 24 25 20 28 6 12 12 12 10 11 16 14 5 7 5 9 11 13 8
14 14 10 18 15 14 13 10 10 12 12 14 14 19 20 21 20 21 23 23 22 24 27 5 8 13 15 12 13 15 18 8 3 3 6 9 10 11
10 13 16 16 13 10 11 11 10 11 11 11 15 17 18 19 20 22 19 20 17 19 22 24 24 11 11 11 9 11 17 13 3 4 7 8 7 8
14 11 14 18 14 9 11 13 10 10 8 14 13 15 16 17 20 22 18 17 16 18 19 22 19 18 5 4 5 8 13 5 8 5 5 5 8 8
17 16 17 18 15 12 12 13 10 7 9 10 11 14 14 16 17 18 19 18 16 18 20 16 16 15 5 5 4 7 13 13 8 5 5 5 8 11
22 20 20 18 16 14 13 12 7 7 10 9 11 12 12 14 17 15 17 18 19 18 16 16 15 16 9 6 6 7 8 6 10 6 8 9 14 11
20 24 24 21 19 16 14 12 10 10 11 13 10 10 11 11 14 14 14 17 19 15 15 16 18 16 14 12 6 3 5 7 8 7 5 4 5 8
24 22 20 20 18 16 14 12 11 11 13 11 8 8 9 10 13 13 14 13 15 17 17 19 18 18 12 7 9 6 5 6 7 7 8 10 5 2
25 24 23 23 21 20 18 16 14 13 12 11 10 9 8 9 11 11 12 12 13 13 18 19 21 16 14 9 8 7 2 2 3 5 8 9 9 10

GFSNE_925_spd_048.txt.gz
Wind_Speed
6 6 8 8 10 10 12 11 5 3 3 3 6 15 19 19 22 22 23 27 26 24 23 23 21 22 23 24 23 25 26 26 29 29 29 28 28 30
9 9 8 7 4 3 2 3 1 2 3 5 16 20 23 25 24 23 24 22 21 21 20 23 22 21 23 24 23 24 25 27 29 30 31 28 29 30
7 7 8 3 6 8 9 9 6 7 7 14 22 24 28 30 27 24 24 22 21 20 20 20 22 24 23 22 22 21 22 24 26 26 25 27 29 29
9 5 4 7 11 12 9 8 9 8 9 13 22 27 30 28 25 25 25 23 21 21 22 21 23 22 23 23 21 22 24 26 25 27 29 28 27 29
10 8 10 11 13 10 10 12 9 9 12 16 21 26 26 25 25 25 24 20 26 24 25 24 24 23 21 21 21 23 22 23 26 29 27 29 29 30
12 10 15 12 9 10 12 10 8 11 14 19 21 21 20 24 22 20 19 24 29 30 25 20 19 19 25 24 23 22 21 22 23 25 24 23 25 24
13 11 11 10 11 12 10 9 8 11 16 21 17 17 17 17 18 20 22 24 30 23 20 23 23 25 24 21 22 22 20 20 22 22 17 20 21 22
14 11 11 12 13 13 11 8 9 11 16 18 15 14 15 16 21 22 22 19 10 16 19 35 25 27 26 22 21 21 21 22 23 18 16 16 18 22
14 11 12 11 12 12 10 10 12 15 19 17 19 18 20 23 23 24 21 20 20 26 22 24 26 29 27 22 25 22 20 22 21 22 19 21 22 24
13 13 14 14 15 12 11 12 16 20 17 13 13 18 19 21 21 23 24 20 20 22 17 16 25 29 28 28 21 10 9 14 19 22 23 24 25 25
17 13 16 16 12 10 11 14 19 22 12 10 11 14 16 15 15 19 20 17 18 20 21 16 22 25 26 21 9 11 16 13 19 19 21 23 24 23
17 16 16 15 12 10 11 15 19 16 12 13 15 16 15 17 15 15 18 16 17 13 11 16 22 15 6 8 10 17 16 19 18 16 18 20 20 21
21 19 17 14 15 13 12 16 16 14 15 17 19 19 18 18 17 17 17 18 18 17 26 22 21 21 8 9 14 17 14 22 25 15 14 15 15 17
24 23 18 14 14 14 15 16 15 15 18 20 20 20 17 18 19 21 17 17 16 19 19 20 18 15 12 13 10 16 24 22 18 10 10 10 13 15
26 24 19 16 14 15 15 16 16 17 19 21 18 16 15 16 18 20 18 16 16 15 16 16 18 20 18 13 12 19 17 18 16 11 9 7 9 12
26 23 21 20 18 19 18 18 17 16 16 16 15 13 13 15 17 17 19 19 18 20 16 15 19 22 17 8 11 15 18 10 22 10 7 5 6 8
25 24 21 21 22 21 21 19 17 17 16 15 14 12 12 12 15 16 17 18 15 16 20 22 23 18 12 3 7 13 18 16 9 10 4 6 5 5
22 22 21 23 22 23 23 21 18 18 16 15 14 11 11 10 13 14 15 17 17 17 17 21 23 22 14 5 10 18 17 17 6 8 7 5 8 7
23 26 26 25 24 24 23 20 18 18 16 15 14 11 8 7 10 12 14 16 18 17 17 18 18 13 5 2 7 13 19 18 10 11 11 9 2 7
24 23 23 26 27 26 24 22 20 18 17 17 13 9 7 8 9 10 11 15 16 16 16 17 17 14 7 4 6 7 11 16 9 6 6 11 10 6
26 25 26 24 25 24 23 22 21 19 20 19 14 10 8 8 9 9 9 11 13 12 14 17 19 15 13 9 4 1 8 11 14 13 5 4 4 4
27 28 28 27 27 26 24 23 22 22 22 21 17 12 10 9 8 7 7 10 10 10 15 16 15 15 14 11 7 3 3 7 9 10 15 13 3 1
27 30 29 28 26 25 24 24 23 23 24 24 19 15 12 11 8 6 5 6 7 10 13 17 14 14 14 9 8 8 6 3 5 10 14 14 15 11

GFSNE_925_spd_051.txt.gz
Wind_Speed
0 3 6 7 7 8 10 10 7 3 3 4 6 12 22 21 21 22 23 25 24 23 23 23 22 22 24 24 25 25 26 27 28 29 29 32 32 31
7 7 6 6 7 6 6 9 9 9 3 7 12 20 21 22 23 21 21 20 21 19 19 20 21 21 21 22 24 24 24 24 26 27 29 32 32 32
8 8 9 8 9 9 11 10 9 8 8 15 17 22 24 27 27 21 21 21 21 19 20 21 23 23 23 23 23 24 24 24 26 27 27 28 31 30
11 12 11 8 11 12 13 12 11 11 13 16 21 23 26 28 23 22 22 21 19 24 24 26 27 27 26 24 24 22 23 23 24 25 28 27 29 32
15 15 14 11 12 18 15 13 15 13 12 15 20 24 25 26 25 24 23 22 28 24 25 22 20 20 22 22 23 25 25 25 26 24 26 28 30 31
15 16 14 14 19 14 14 15 15 14 14 16 22 22 19 24 20 19 23 22 28 29 22 19 22 24 22 23 23 24 24 25 26 26 26 27 29 29
15 17 17 17 15 16 17 16 14 13 13 17 19 17 15 16 15 21 22 25 28 22 22 26 29 29 25 23 22 20 22 23 24 24 25 27 25 23
18 19 16 14 15 17 16 13 13 12 14 16 17 14 15 16 21 19 20 19 10 15 20 30 28 31 29 26 24 23 23 24 25 26 26 27 24 24
20 18 16 14 15 15 15 14 14 13 14 18 18 15 17 20 21 23 20 21 20 23 27 26 27 31 30 32 28 24 23 22 21 23 27 28 26 22
21 18 19 18 15 17 18 17 16 15 17 15 12 13 15 18 19 21 23 25 22 22 20 18 24 30 32 33 25 16 11 16 17 18 21 25 29 28
22 21 20 16 16 17 16 16 16 17 15 9 8 10 12 14 16 19 21 17 18 20 25 17 18 30 29 23 12 11 14 20 17 23 23 23 25 26
23 23 20 19 17 16 18 17 17 17 12 10 10 12 13 16 17 15 18 16 17 14 4 18 21 15 9 13 11 21 20 19 21 26 25 20 21 22
25 25 22 21 19 18 19 18 18 15 13 13 14 17 18 17 17 17 18 19 18 17 24 19 16 21 12 12 20 24 21 19 24 22 15 11 14 16
27 26 23 22 22 20 20 19 17 16 16 17 18 19 19 16 17 17 18 17 17 21 21 17 17 20 18 21 17 20 25 25 20 20 12 8 9 14
28 28 27 25 22 20 21 19 18 18 18 19 19 18 16 15 16 17 17 17 18 17 15 13 15 19 18 18 15 18 20 19 15 18 8 9 9 11
29 28 28 27 24 23 22 22 20 19 20 19 19 17 15 15 15 14 17 18 20 19 16 15 16 19 21 20 13 16 20 10 20 13 9 7 7 10
26 28 27 26 24 24 26 26 23 20 20 19 18 17 15 14 15 12 14 16 17 18 20 22 20 19 11 11 7 17 19 17 14 11 6 4 8 13
22 22 23 24 22 23 24 25 24 21 21 20 18 17 15 13 13 11 12 13 16 19 20 21 22 23 14 5 7 17 18 15 13 12 9 5 7 14
23 22 24 24 27 26 26 25 24 20 16 16 17 17 14 12 10 10 11 12 15 18 19 18 17 11 4 2 6 10 17 21 13 12 13 11 6 13
21 23 29 28 27 27 26 26 24 20 18 16 17 17 14 13 11 10 10 10 13 16 16 20 17 12 6 4 5 11 11 16 16 9 10 9 6 5
23 23 27 27 29 26 25 23 22 20 18 16 18 19 16 14 12 9 9 8 10 11 14 18 19 15 13 10 4 3 7 10 14 16 13 5 6 5
22 26 28 28 28 28 26 22 20 20 18 19 20 20 17 15 13 10 9 7 7 9 14 17 14 13 12 8 8 5 4 6 9 12 17 15 4 3
20 23 25 26 27 27 26 23 20 20 20 20 21 23 19 17 14 11 9 7 6 8 11 16 13 11 11 9 8 8 12 4 7 12 15 16 14 14

GFSNE_925_spd_057.txt.gz
Wind_Speed
8 6 5 5 9 11 11 11 11 8 9 14 12 9 11 14 18 18 20 22 26 25 24 23 23 23 23 24 25 25 26 27 28 27 28 29 30 30
9 7 7 9 10 11 12 13 13 15 11 18 15 14 13 15 16 18 20 23 22 23 22 22 22 22 24 25 26 27 28 29 29 28 29 29 28 27
11 12 12 11 12 12 13 14 14 14 18 21 15 15 14 16 17 18 19 19 19 19 21 22 24 24 26 25 25 25 26 28 29 29 28 29 30 28
15 14 14 13 15 15 15 16 15 16 18 20 18 17 16 16 17 18 18 18 18 20 21 22 23 22 21 20 21 23 25 25 25 27 28 28 28 27
16 16 16 15 16 16 17 17 16 17 16 18 21 17 16 16 17 18 18 18 17 19 22 20 18 18 20 23 23 23 24 24 25 25 27 28 27 27
20 19 18 17 17 17 17 18 18 17 16 17 19 19 17 16 16 17 18 17 19 20 17 15 19 21 23 23 21 20 21 22 23 24 25 26 27 27
19 20 20 20 20 20 17 18 17 17 18 19 19 18 17 16 17 17 18 19 20 17 15 16 23 22 19 18 17 17 20 22 23 24 24 24 25 26
18 18 21 21 22 23 22 21 20 21 22 19 19 18 18 17 16 15 16 17 16 15 21 24 21 21 18 17 19 23 23 23 23 23 23 25 26 26
20 20 19 21 23 21 21 22 22 25 23 20 20 19 18 16 14 15 15 17 20 23 24 24 22 19 17 19 22 21 15 16 18 19 16 19 21 22
22 22 21 21 20 20 19 18 18 18 18 19 19 19 17 15 14 15 17 20 21 20 18 20 16 20 21 22 19 12 15 22 20 20 24 25 25 27
23 25 24 23 24 23 21 20 19 19 18 22 23 20 20 16 14 16 17 17 19 20 18 11 17 23 23 19 11 13 22 23 19 20 23 26 25 30
24 24 29 30 28 24 25 22 21 21 17 14 15 16 15 15 16 16 17 17 17 14 6 14 18 18 10 12 13 19 22 24 25 23 22 24 24 22
25 25 23 29 29 24 25 25 26 21 17 16 15 14 13 14 15 14 14 15 17 18 19 16 16 19 14 23 20 22 21 26 22 22 20 20 22 21
28 27 26 30 27 26 24 28 28 25 18 16 16 16 15 15 15 15 14 14 16 19 19 18 18 18 19 20 23 21 25 23 21 18 19 20 19 17
26 31 34 34 31 27 27 25 26 24 19 18 19 18 16 15 14 13 12 14 16 17 15 14 16 18 18 20 22 22 23 21 17 18 19 19 15 15
27 28 29 32 28 23 23 24 27 25 24 22 20 18 15 12 13 13 12 13 14 15 11 12 13 14 18 19 20 21 18 14 20 17 20 16 13 13
33 30 26 21 20 19 21 20 17 21 22 21 18 18 17 13 14 12 11 12 13 14 13 12 12 14 17 19 17 14 12 16 16 16 16 15 12 14
28 25 23 22 22 16 15 17 16 20 19 19 18 17 17 14 14 13 11 12 13 13 12 11 12 13 10 5 9 10 10 13 16 15 14 13 11 14
23 22 23 21 19 16 15 16 18 17 18 17 17 16 15 14 14 13 12 11 12 11 10 9 9 8 6 6 7 7 9 12 14 14 13 12 11 12
23 22 22 19 14 12 13 14 15 14 16 16 16 15 14 15 14 13 12 11 10 10 9 7 7 7 8 6 8 10 8 8 11 14 15 13 9 8
28 30 25 13 9 11 14 15 17 16 16 15 16 16 15 15 15 13 11 10 9 9 9 8 8 11 10 9 7 7 4 5 5 9 14 12 9 8
25 24 25 25 22 15 13 14 13 14 15 15 16 15 16 16 16 14 12 10 9 9 8 8 8 7 5 5 7 7 7 4 3 6 10 11 7 5
24 24 23 22 21 21 18 13 13 14 14 15 16 16 16 16 16 14 12 10 9 8 7 6 6 5 5 5 6 6 6 5 5 3 5 9 9 8

GFSNE_925_spd_060.txt.gz
Wind_Speed
14 11 12 11 11 11 10 12 13 9 9 15 15 14 15 17 18 20 22 22 24 28 24 23 23 23 23 23 24 25 26 27 28 28 28 29 29 30
13 12 13 12 12 11 12 13 15 17 11 17 17 17 16 18 19 20 22 22 24 23 23 23 23 24 24 25 26 26 27 27 27 28 29 29 29 29
15 15 15 14 14 13 14 15 17 17 18 22 20 19 16 18 21 21 22 22 23 22 21 24 24 23 25 26 25 24 23 23 24 25 26 28 30 29
17 16 17 16 16 16 17 18 18 18 19 22 24 22 20 19 20 21 22 21 22 22 22 24 24 25 25 23 23 22 24 25 26 26 25 25 27 29
17 17 18 18 19 19 19 19 19 20 21 23 24 22 21 19 20 20 21 21 20 20 23 23 20 22 22 23 25 26 26 26 26 25 25 25 25 26
18 19 20 21 22 22 21 21 21 22 23 23 23 23 22 20 19 20 20 19 20 19 21 21 20 22 25 25 25 25 25 23 23 24 26 26 26 26
20 21 23 24 25 25 24 21 21 22 22 22 23 22 22 21 18 18 19 20 19 18 18 18 20 23 22 21 21 21 17 19 25 26 27 28 27 27
23 24 25 25 27 31 30 29 27 25 25 22 23 21 24 22 18 18 19 18 16 15 16 22 20 23 23 20 18 20 23 23 23 22 23 24 25 25
25 27 27 27 25 26 27 26 27 30 30 27 27 25 25 21 20 19 19 18 19 20 20 23 20 22 20 21 19 22 22 17 17 21 22 21 19 21
26 27 29 30 29 27 26 26 25 24 24 23 23 25 23 20 18 18 18 19 20 20 17 21 21 20 21 23 22 20 16 15 19 20 22 22 26 28
27 28 29 31 30 29 28 30 28 26 24 26 28 26 24 24 23 19 18 18 18 18 17 18 16 22 22 22 14 8 16 20 23 25 25 22 23 25
27 29 31 33 34 33 30 29 26 29 22 21 20 18 20 20 21 19 19 18 18 17 13 13 19 21 15 17 11 21 17 20 21 24 22 23 22 19
27 29 29 30 30 33 35 31 30 27 23 23 21 20 19 18 18 19 18 19 19 19 16 15 19 20 19 22 20 19 20 19 21 22 19 19 19 20
28 28 29 29 31 31 34 34 36 30 24 18 19 21 20 19 18 17 18 18 19 20 19 17 19 20 21 22 21 20 20 20 20 20 19 20 22 20
30 33 35 35 31 29 30 33 34 30 24 19 21 22 21 20 17 15 16 16 18 19 18 16 17 19 20 22 23 22 20 21 19 18 17 19 23 19
31 31 30 35 35 31 31 30 32 28 26 23 24 24 20 17 17 15 15 14 16 16 14 14 16 17 19 20 20 21 19 15 19 18 18 20 18 15
36 29 28 27 26 25 22 22 25 22 22 23 20 18 17 17 17 16 15 14 15 15 14 13 13 15 18 20 21 18 18 16 15 18 17 17 18 10
25 21 23 25 24 24 23 20 17 16 18 19 20 19 17 18 17 16 15 14 15 14 13 12 12 14 15 14 17 13 14 13 16 17 16 12 16 12
19 21 23 26 26 24 19 15 13 14 15 17 20 18 19 17 17 15 14 14 14 13 12 11 11 11 7 7 6 7 10 12 14 15 14 14 15 14
21 22 24 26 27 29 4 6 9 8 12 15 17 17 17 17 15 14 15 14 13 12 11 11 10 10 10 7 10 14 13 9 11 13 15 17 14 11
21 22 23 24 25 25 26 16 12 13 14 15 15 17 19 17 15 15 14 13 10 11 10 10 8 9 11 10 10 12 4 7 7 8 13 14 12 7
20 21 22 22 23 22 23 22 22 10 11 13 15 17 18 16 15 15 14 12 11 11 11 9 8 8 9 10 10 9 9 7 9 8 6 7 6 6
20 21 22 21 21 21 20 20 20 19 14 11 12 14 16 16 15 15 14 13 11 10 9 8 7 8 8 8 8 9 7 8 7 8 6 7 6 5

GFSNE_925_spd_063.txt.gz
Wind_Speed
11 14 14 15 16 14 13 14 15 9 10 17 17 16 16 15 16 15 19 22 24 28 31 27 24 23 22 23 25 25 25 26 26 27 28 28 29 30
11 14 15 18 16 15 15 16 16 18 11 19 19 18 17 21 19 17 21 25 26 26 26 27 24 22 23 25 25 25 25 25 25 25 25 25 27 29
16 14 18 18 17 17 16 17 18 18 18 22 21 21 21 21 21 20 20 21 25 26 24 24 26 25 27 25 25 24 23 23 22 23 23 24 24 25
14 17 21 18 19 19 19 20 20 21 21 22 24 23 24 22 23 22 22 25 24 25 26 26 30 26 24 22 22 23 23 23 24 25 24 23 24 24
19 20 20 20 21 20 21 23 22 23 22 21 23 24 24 22 23 23 23 23 24 25 24 24 23 21 25 25 24 23 23 23 25 25 24 24 23 23
19 21 22 20 22 23 24 25 25 25 24 23 23 25 24 23 20 21 23 22 21 22 24 24 23 23 22 24 24 24 24 22 21 21 22 26 27 26
20 22 23 24 25 26 26 27 26 26 23 22 22 22 21 21 21 21 21 24 21 20 23 21 21 20 22 22 22 18 14 17 18 22 24 25 25 25
21 22 24 27 28 31 35 36 34 31 29 26 24 23 24 23 24 24 21 20 16 19 21 20 21 22 21 20 20 23 21 22 22 22 19 22 25 24
21 24 26 28 29 29 29 32 33 32 35 35 29 28 27 25 25 22 22 20 22 21 20 22 22 21 20 21 21 24 25 23 18 17 21 22 24 25
24 26 28 29 29 31 31 31 31 29 29 30 27 28 25 25 22 21 19 19 21 23 22 21 20 20 18 20 23 23 19 16 18 19 22 23 25 25
23 25 27 30 32 34 36 32 33 34 34 28 30 29 27 25 24 19 19 19 19 22 20 19 18 17 18 22 19 16 16 19 20 20 22 25 25 25
23 25 28 30 31 32 31 30 34 34 32 32 23 23 28 28 29 28 23 20 19 18 20 17 17 18 16 21 11 21 18 19 20 20 23 23 22 20
23 26 26 29 31 33 34 31 32 33 33 30 26 25 19 19 19 21 20 20 20 20 21 12 16 18 19 21 20 20 19 18 19 20 23 20 17 19
24 26 30 33 39 41 39 37 37 34 32 28 24 22 19 17 21 21 21 24 24 23 20 18 15 17 20 20 19 21 19 19 19 21 21 18 16 21
26 31 37 41 38 35 31 32 30 27 27 26 25 23 22 23 22 21 20 20 20 20 19 18 18 18 19 20 20 20 19 19 21 17 16 15 19 19
27 31 37 35 33 33 33 31 27 24 26 26 25 23 23 20 20 20 18 16 17 18 19 20 18 17 18 20 20 20 19 16 21 18 15 21 18 18
30 28 25 24 25 26 28 27 25 22 22 26 23 16 15 16 18 17 16 16 17 15 16 17 15 17 18 18 21 20 18 19 17 13 19 19 17 17
23 20 21 22 23 26 26 33 27 22 20 20 18 17 15 16 16 15 17 17 16 15 16 15 12 13 15 18 22 21 15 13 14 14 16 15 16 17
17 19 19 21 24 25 27 28 34 17 13 14 10 14 15 15 16 16 18 17 15 14 15 13 13 13 8 8 12 8 10 12 12 13 12 13 17 20
17 19 20 22 23 25 27 28 31 29 8 9 14 15 15 16 16 15 15 14 14 14 15 14 13 13 12 7 10 17 17 14 12 10 12 15 19 17
18 20 20 22 23 24 25 27 27 27 30 14 15 15 15 15 16 15 13 14 14 13 14 12 10 5 7 8 9 15 12 8 10 9 10 13 13 11
19 20 21 22 23 23 24 25 26 27 28 26 13 14 16 16 18 14 13 14 15 13 13 11 9 7 8 11 13 12 9 6 11 14 12 7 5 5
19 20 22 22 23 23 22 22 24 24 25 26 22 18 12 15 16 14 14 15 12 12 12 10 9 8 10 10 11 11 11 9 10 10 11 10 6 9

GFSNE_925_spd_069.txt.gz
Wind_Speed
17 15 14 12 11 13 16 20 18 4 3 12 15 20 22 16 15 26 26 24 23 23 22 20 19 20 19 18 18 19 21 23 24 24 24 24 25 26
18 16 16 15 13 17 21 25 26 23 7 15 19 17 18 21 20 17 20 22 24 24 24 21 20 20 20 20 20 19 20 20 20 20 21 22 24 24
17 15 16 14 16 19 21 23 27 24 16 17 22 21 23 25 26 26 23 24 26 25 25 22 19 21 22 21 20 21 22 20 21 20 19 20 22 23
13 13 14 14 17 19 19 24 27 25 23 23 29 31 31 30 33 34 34 36 32 28 23 21 23 24 25 19 20 23 22 21 25 23 21 20 19 20
12 12 13 14 16 19 24 25 24 27 28 30 29 32 31 29 29 30 27 27 32 16 20 19 20 18 18 19 21 21 18 22 24 27 26 24 21 20
8 10 12 16 20 23 24 25 27 28 31 34 30 31 29 26 24 28 22 22 23 18 17 20 22 24 22 18 13 14 17 19 21 19 22 24 24 25
8 12 15 18 19 22 27 29 30 33 30 28 27 27 26 25 23 24 17 17 18 20 23 19 23 20 19 16 15 18 19 17 16 15 17 21 24 26
10 11 12 15 16 18 20 17 13 15 20 23 24 24 28 27 29 29 26 19 12 20 16 21 19 16 17 18 21 16 17 17 19 18 19 22 22 24
7 11 12 10 11 16 21 25 27 29 28 23 26 25 27 28 31 28 24 22 22 25 19 19 20 23 21 20 18 17 18 19 20 18 17 19 20 19
3 7 11 15 18 22 27 30 32 33 31 26 25 30 28 26 30 31 31 31 29 27 20 15 24 24 23 20 17 15 14 15 13 16 19 19 20 20
9 12 14 17 18 20 25 30 32 34 34 30 29 31 34 38 36 31 24 19 13 19 23 19 22 21 19 13 10 13 14 12 13 16 20 20 20 20
9 12 13 14 17 20 23 27 28 33 34 38 35 33 30 33 31 30 29 23 18 9 19 15 19 12 4 10 11 9 12 21 19 17 19 20 20 19
12 15 17 19 20 21 19 23 26 33 35 32 32 28 27 28 27 25 28 29 22 19 15 13 8 12 10 8 13 14 17 20 17 19 16 18 19 18
13 15 18 20 18 18 20 22 23 26 24 25 27 28 27 26 28 27 28 35 34 33 22 19 14 14 13 11 9 15 19 21 20 18 18 14 17 18
13 16 17 17 16 18 21 20 22 23 24 24 25 28 29 30 29 28 27 32 31 25 23 23 20 18 18 17 11 16 20 23 18 9 18 17 14 14
17 16 16 16 16 20 21 20 21 22 23 24 27 32 34 27 26 25 24 24 21 24 24 22 21 20 20 20 20 21 23 13 21 22 19 13 14 11
14 15 17 17 20 19 19 19 22 23 24 27 30 30 37 25 23 26 22 18 14 17 21 22 21 20 20 19 18 21 25 25 24 19 12 13 15 12
14 14 14 16 19 18 18 20 20 23 24 27 30 30 30 30 22 5 12 16 16 17 20 20 16 15 15 16 18 23 24 24 17 7 8 12 15 16
13 13 14 16 18 16 17 19 22 23 25 25 27 28 30 33 24 15 12 12 16 18 20 17 18 16 3 4 15 11 19 12 11 15 12 10 14 17
11 12 13 16 17 19 18 21 23 24 24 25 26 27 26 27 32 14 12 12 15 17 16 18 18 17 12 7 8 10 11 13 11 11 11 11 13 13
10 12 16 17 17 19 21 23 23 23 26 25 26 25 26 27 28 31 19 17 17 15 14 15 20 15 13 8 2 7 9 9 9 11 10 11 12 6
12 15 15 16 20 22 23 20 21 24 22 24 24 24 25 25 25 28 27 17 18 18 16 16 11 13 11 9 7 8 10 6 7 8 8 12 11 2
15 15 17 19 22 22 19 20 27 27 21 25 21 24 25 25 24 25 26 28 17 18 16 14 13 12 13 10 9 11 13 14 11 7 8 7 8 12

GFSNE_925_spd_072.txt.gz
Wind_Speed
22 23 21 20 17 16 14 14 10 3 3 9 9 11 17 19 17 14 16 23 31 32 30 29 30 28 24 21 19 18 18 17 18 19 19 19 21 22
24 23 22 19 17 16 15 16 17 13 4 11 21 22 21 20 21 24 27 24 25 28 32 33 34 31 26 23 22 21 20 19 18 18 18 17 19 20
23 22 19 16 16 15 14 15 18 19 15 19 23 23 22 22 25 28 29 30 30 31 33 36 36 33 28 26 23 24 21 21 20 19 19 19 19 19
22 18 15 13 13 12 13 16 18 20 24 19 25 28 30 30 32 33 31 33 37 36 34 36 33 32 35 30 28 25 22 22 23 21 21 19 20 20
17 15 12 10 11 11 11 16 18 21 25 27 25 28 30 33 35 35 36 36 35 36 39 31 35 34 30 30 30 25 22 23 23 21 20 21 21 22
14 11 8 8 9 11 14 17 20 23 25 29 26 25 24 29 30 31 32 32 38 37 27 26 23 28 25 30 25 24 23 22 21 21 20 18 19 22
10 7 6 8 9 12 12 9 8 10 14 16 19 20 21 22 24 25 30 34 35 28 30 28 29 30 32 28 27 22 18 20 22 20 17 17 17 20
7 5 4 4 3 4 7 8 11 13 16 17 19 18 22 24 26 26 27 20 15 27 32 37 35 27 28 26 23 20 19 19 19 17 16 16 15 17
6 5 4 2 6 10 13 17 18 20 17 18 20 20 24 22 25 25 23 23 26 28 24 25 30 26 27 24 21 19 18 18 17 15 15 14 16 17
6 3 4 7 10 12 16 18 19 21 20 20 21 25 25 27 27 28 29 31 32 30 26 18 25 28 27 24 22 19 18 16 15 13 12 15 16 18
3 3 6 8 9 11 15 18 20 21 20 20 22 25 27 25 25 27 24 22 22 26 25 22 20 24 22 20 18 15 15 13 13 11 14 14 15 16
2 4 6 8 10 12 12 15 18 19 23 23 20 20 22 26 26 24 26 23 22 21 21 20 18 14 4 9 14 16 14 11 12 17 15 16 14 15
3 5 7 9 10 8 9 12 15 20 22 21 21 21 23 23 26 25 24 26 25 24 20 23 15 13 10 6 11 13 12 15 15 15 15 13 14 14
3 5 7 7 7 6 10 13 15 18 23 23 20 21 24 27 29 28 29 30 26 28 26 26 11 18 14 9 7 9 12 15 14 14 10 7 12 11
4 5 6 6 5 10 12 13 16 20 20 19 20 22 26 32 33 31 25 29 28 25 26 24 23 17 17 11 5 9 12 16 16 5 8 15 11 9
6 5 6 4 7 10 13 13 15 16 17 17 21 25 27 28 29 30 27 25 21 22 25 27 19 17 16 15 15 15 17 10 10 18 16 11 8 8
6 6 5 7 10 11 9 11 14 16 16 18 21 26 27 27 28 29 35 28 19 13 15 16 16 17 18 16 15 17 18 17 16 16 10 9 9 9
3 5 5 9 12 10 11 13 13 15 17 19 19 22 24 26 27 32 37 19 14 16 15 16 18 16 14 15 17 19 17 17 16 14 10 11 14 11
6 5 6 10 12 10 12 12 14 16 19 18 19 21 22 24 25 27 28 21 8 10 15 16 18 14 4 3 9 9 13 14 13 11 14 14 14 15
3 4 8 11 10 12 14 16 18 18 20 23 18 23 21 23 24 24 25 24 21 11 12 15 16 18 12 7 6 12 11 12 12 12 11 9 11 12
4 8 11 12 15 17 19 21 18 18 24 22 18 22 19 22 23 21 23 25 25 15 12 14 21 20 18 12 4 7 9 11 11 11 9 8 9 6
10 11 12 14 16 19 20 18 18 25 22 20 19 18 22 25 21 21 21 24 24 22 19 18 15 14 13 14 9 8 7 4 5 8 9 10 8 2
11 12 14 16 18 18 17 21 22 20 21 18 19 20 25 23 21 19 22 23 21 23 24 12 16 15 17 12 12 11 7 8 6 5 7 7 9 11

GFSNE_925_spd_075.txt.gz
Wind_Speed
29 25 24 23 24 23 20 15 9 3 3 5 7 7 7 14 18 17 16 15 17 21 25 31 37 36 35 32 29 24 23 22 21 19 18 18 19 21
26 22 22 20 22 19 16 14 12 9 2 7 8 15 20 21 20 19 21 23 24 25 25 26 30 35 39 39 34 29 26 26 25 22 20 20 19 21
22 21 22 21 20 17 15 13 13 14 9 8 19 22 22 22 24 25 27 29 29 29 28 30 33 35 38 42 40 33 29 29 28 25 23 23 21 22
23 20 21 17 16 13 13 13 14 15 15 16 22 23 24 25 27 28 29 30 32 33 33 34 36 37 39 43 37 34 36 30 36 30 26 25 23 23
21 21 19 15 13 12 11 12 14 14 16 16 12 20 24 25 27 27 30 31 32 33 35 37 33 40 41 33 38 39 32 36 35 30 30 27 25 24
18 17 14 12 11 8 9 12 14 14 16 16 16 15 14 19 21 24 29 31 31 29 33 36 36 38 36 37 32 32 31 35 33 30 28 25 25 25
17 13 10 9 9 10 11 11 9 7 9 12 15 16 20 19 20 24 28 32 31 33 37 37 37 33 37 33 32 29 30 32 29 28 24 26 24 21
16 13 10 7 7 8 6 7 9 9 12 12 14 17 18 22 24 24 23 22 17 20 23 32 29 34 36 38 38 30 27 31 25 24 24 22 20 19
13 11 11 7 5 3 7 10 12 12 11 12 15 18 19 21 23 24 22 24 26 27 26 31 25 33 39 37 28 25 27 25 22 21 22 21 19 18
10 9 6 4 4 7 9 11 11 11 10 10 13 17 20 21 23 24 25 26 27 25 20 25 27 31 32 29 32 24 28 23 22 21 21 18 17 19
6 3 1 3 5 8 9 10 11 12 13 14 16 18 18 19 19 23 21 19 23 26 21 22 25 25 26 28 28 24 26 22 19 19 17 16 17 20
4 1 3 5 5 5 6 7 10 14 18 20 21 20 18 19 19 16 23 23 21 22 13 18 20 19 12 18 21 20 20 18 19 16 14 15 16 18
2 2 4 5 5 3 4 6 8 12 14 17 18 18 16 17 19 20 21 22 26 28 30 22 18 20 15 3 7 19 18 18 14 13 14 15 16 16
3 4 4 3 3 2 4 6 7 11 14 16 15 13 16 19 23 25 25 27 27 33 39 30 17 19 11 7 5 15 18 14 13 13 11 12 10 12
3 3 3 2 2 4 5 6 9 13 15 16 13 16 19 24 25 26 26 27 28 29 33 32 28 24 22 11 8 11 11 13 12 10 7 7 12 11
2 2 2 2 3 5 7 9 12 12 14 13 16 19 22 22 23 24 26 28 29 30 26 30 22 26 21 16 16 9 12 7 5 9 10 14 11 10
2 2 3 2 5 6 6 8 9 12 12 15 17 19 20 24 23 24 25 27 23 27 20 19 18 25 22 17 14 14 14 14 13 12 10 12 10 9
1 2 2 2 4 4 5 8 8 11 12 15 17 17 19 22 23 26 23 22 24 29 18 15 16 14 10 14 17 16 14 14 13 11 10 10 14 10
3 3 1 3 5 5 7 9 11 12 14 15 20 17 20 21 20 22 22 22 24 24 28 16 13 11 5 5 5 14 16 14 13 12 11 13 17 16
2 1 3 5 5 7 8 10 13 15 13 18 19 16 19 18 20 22 21 21 22 26 24 18 13 16 11 8 6 9 13 16 15 13 13 11 11 9
2 5 7 7 9 11 13 15 14 14 18 17 17 14 18 18 23 21 21 21 22 20 20 21 15 16 16 13 3 9 11 12 13 13 10 7 5 5
6 7 7 9 12 15 16 15 17 20 19 18 18 16 20 20 22 21 20 20 22 21 22 26 23 16 15 15 11 12 11 9 9 9 10 10 6 2
7 8 11 14 15 16 17 19 20 20 18 19 18 22 20 21 21 20 18 25 21 22 21 25 29 16 17 13 14 11 9 8 7 8 8 9 10 10

GFSNE_925_spd_081.txt.gz
Wind_Speed
30 30 31 32 31 28 27 24 15 4 7 11 11 14 15 13 11 11 14 15 14 13 13 15 17 19 22 25 29 32 35 36 37 38 35 34 31 27
28 25 30 32 29 26 27 27 27 16 4 11 12 11 12 14 12 12 13 13 14 16 18 20 23 25 27 30 31 34 35 37 38 38 39 36 34 31
29 24 23 30 29 29 26 27 25 20 11 6 11 11 11 13 10 11 11 14 16 18 19 21 23 26 29 31 34 35 37 40 41 43 43 40 37 33
32 28 28 30 26 23 23 29 28 18 13 12 13 12 11 12 12 13 13 13 11 16 21 23 26 28 30 32 33 34 36 36 37 37 38 40 37 32
30 31 31 29 25 24 27 26 21 18 16 12 11 11 11 13 9 11 12 13 15 20 24 25 26 26 27 29 30 33 36 38 39 38 37 37 37 38
27 27 27 24 23 23 24 21 18 16 13 12 9 10 10 8 9 10 12 11 15 17 20 19 16 20 22 24 27 30 32 33 33 36 37 34 37 38
20 19 18 19 18 19 20 18 16 15 13 11 7 6 8 8 9 7 11 13 16 15 11 14 13 18 20 20 23 25 28 32 29 28 30 32 34 34
19 17 16 16 15 14 13 13 12 10 7 5 4 7 7 9 8 9 11 12 7 6 10 20 18 20 19 19 22 26 28 28 27 25 24 30 29 25
21 22 19 16 15 13 11 9 6 5 6 9 6 6 6 7 8 11 12 12 14 17 18 21 15 20 19 21 23 26 28 25 25 24 26 31 28 23
21 18 17 15 12 10 7 6 4 3 3 4 4 4 7 9 11 13 15 16 17 16 14 16 17 23 21 22 24 29 25 23 23 20 21 21 21 20
17 15 13 12 8 5 5 4 3 2 2 3 5 8 10 11 11 10 12 13 14 13 17 18 14 20 23 26 22 20 20 23 21 22 22 21 17 19
16 13 9 5 3 3 3 3 4 2 1 4 5 6 7 7 8 7 8 13 14 10 2 8 16 19 11 16 14 18 20 21 20 18 16 16 18 16
14 11 8 6 5 5 5 4 4 2 2 4 5 6 5 7 7 7 9 11 14 17 17 13 16 22 19 26 27 24 19 19 14 11 13 14 16 16
11 8 7 7 8 5 4 2 1 1 3 4 5 5 7 8 9 11 13 14 16 22 23 20 22 23 25 27 25 23 18 16 10 9 10 12 14 14
8 6 6 8 7 4 2 2 2 2 3 5 7 7 8 11 13 13 14 16 19 20 21 21 22 24 25 27 27 23 15 14 13 13 12 11 11 12
6 5 5 5 3 2 1 3 3 3 5 7 8 10 10 12 12 13 16 18 21 22 16 18 18 21 28 28 29 27 17 12 13 17 15 12 11 12
6 5 3 1 1 2 3 4 5 6 8 9 11 13 14 13 14 13 15 17 19 23 24 19 18 22 27 31 28 22 18 18 14 13 14 14 14 13
4 3 2 1 3 5 7 8 8 9 10 12 14 15 15 15 16 15 16 16 19 21 24 24 22 24 22 19 22 17 19 18 17 15 13 14 14 12
6 4 4 4 5 7 8 10 11 12 13 14 15 15 16 17 17 17 17 17 19 20 21 22 20 19 10 10 15 23 18 18 15 14 15 14 13 10
6 5 5 6 8 9 10 11 13 14 15 16 16 17 17 17 17 17 18 18 19 20 22 20 18 16 15 11 15 16 27 16 18 16 14 13 11 9
6 6 8 9 9 11 13 14 15 16 17 18 18 18 17 17 18 18 19 19 20 21 20 20 20 22 23 21 14 19 16 28 16 15 13 12 11 9
8 8 9 10 12 14 15 16 17 17 18 19 19 19 18 17 18 19 19 19 19 20 21 23 23 20 19 18 18 20 12 16 19 14 11 10 7 5
8 10 11 12 14 15 17 18 19 20 19 19 19 18 17 18 18 18 18 19 20 21 21 22 21 19 19 19 20 23 14 16 15 13 9 12 12 8